Time,TemperatureF,DewpointF,PressureIn,WindDirection,WindDirectionDegrees,WindSpeedMPH,WindSpeedGustMPH,Humidity,HourlyPrecipIn,Conditions,Clouds,dailyrainin,SoftwareType,DateUTC
2013-03-05 00:14:00,48.0,47.7,29.56,ESE,112,0.0,-999.0,99,-99.99,,,0.00,Acu-Link.com,2013-03-05 06:14:00,
2013-03-05 00:29:00,46.8,46.5,29.54,SE,135,0.0,-999.0,99,-99.99,,,0.04,Acu-Link.com,2013-03-05 06:29:00,
2013-03-05 00:44:00,47.1,46.8,29.54,SE,135,0.0,-999.0,99,-99.99,,,0.05,Acu-Link.com,2013-03-05 06:44:00,
2013-03-05 00:59:00,47.1,46.8,29.54,SE,135,0.0,-999.0,99,-99.99,,,0.05,Acu-Link.com,2013-03-05 06:59:00,
2013-03-05 01:14:00,47.1,46.8,29.53,ESE,112,3.7,-999.0,99,-99.99,,,0.06,Acu-Link.com,2013-03-05 07:14:00,
2013-03-05 01:30:00,46.6,46.3,29.53,SE,135,5.3,-999.0,99,-99.99,,,0.07,Acu-Link.com,2013-03-05 07:30:00,
2013-03-05 01:45:00,46.6,46.3,29.52,ESE,112,6.3,-999.0,99,-99.99,,,0.09,Acu-Link.com,2013-03-05 07:45:00,
2013-03-05 02:00:00,46.9,4.4,29.54,NE,45,0.0,-999.0,17,-99.99,,,0.09,Acu-Link.com,2013-03-05 08:00:00,
2013-03-05 02:15:00,46.4,39.6,29.51,ESE,112,6.3,-999.0,77,-99.99,,,0.09,Acu-Link.com,2013-03-05 08:15:00,
2013-03-05 02:30:00,46.4,-9.3,29.53,SE,135,5.8,-999.0,9,-99.99,,,0.12,Acu-Link.com,2013-03-05 08:30:00,
2013-03-05 02:45:00,46.4,-37.5,29.52,SE,135,0.0,-999.0,2,-99.99,,,0.13,Acu-Link.com,2013-03-05 08:45:00,
2013-03-05 03:00:00,46.4,39.3,29.51,SE,135,4.7,-999.0,76,-99.99,,,0.13,Acu-Link.com,2013-03-05 09:00:00,
2013-03-05 03:15:00,46.4,45.9,29.51,SE,135,7.3,-999.0,98,-99.99,,,0.13,Acu-Link.com,2013-03-05 09:15:00,
2013-03-05 03:30:00,46.4,-14.3,29.50,SE,135,5.3,-999.0,7,-99.99,,,0.13,Acu-Link.com,2013-03-05 09:30:00,
2013-03-05 03:46:00,46.2,3.8,29.50,SE,135,2.7,-999.0,17,-99.99,,,0.13,Acu-Link.com,2013-03-05 09:46:00,
2013-03-05 04:01:00,46.0,13.9,29.50,ESE,112,5.3,-999.0,27,-99.99,,,0.15,Acu-Link.com,2013-03-05 10:01:00,
2013-03-05 04:16:00,46.0,17.8,29.51,ESE,112,0.0,-999.0,32,-99.99,,,0.16,Acu-Link.com,2013-03-05 10:16:00,
2013-03-05 04:31:00,46.4,23.4,29.50,ESE,112,0.0,-999.0,40,-99.99,,,0.19,Acu-Link.com,2013-03-05 10:31:00,
2013-03-05 04:46:00,46.4,23.4,29.51,ESE,112,0.0,-999.0,40,-99.99,,,0.19,Acu-Link.com,2013-03-05 10:46:00,
2013-03-05 05:01:00,46.4,24.6,29.51,ESE,112,0.0,-999.0,42,-99.99,,,0.20,Acu-Link.com,2013-03-05 11:01:00,
2013-03-05 05:16:00,46.6,24.8,29.50,ESE,112,0.0,-999.0,42,-99.99,,,0.21,Acu-Link.com,2013-03-05 11:16:00,
2013-03-05 05:31:00,46.6,25.9,29.52,ESE,112,0.0,-999.0,44,-99.99,,,0.23,Acu-Link.com,2013-03-05 11:31:00,
2013-03-05 05:46:00,46.6,25.9,29.52,ESE,112,0.0,-999.0,44,-99.99,,,0.25,Acu-Link.com,2013-03-05 11:46:00,
2013-03-05 06:02:00,46.9,26.7,29.51,SE,135,0.0,-999.0,45,-99.99,,,0.27,Acu-Link.com,2013-03-05 12:02:00,
2013-03-05 06:17:00,47.1,26.9,29.50,SE,135,0.0,-999.0,45,-99.99,,,0.28,Acu-Link.com,2013-03-05 12:17:00,
2013-03-05 06:32:00,47.3,27.0,29.50,SE,135,0.0,-999.0,45,-99.99,,,0.29,Acu-Link.com,2013-03-05 12:32:00,
2013-03-05 06:47:00,47.5,27.2,29.49,SE,135,0.0,-999.0,45,-99.99,,,0.30,Acu-Link.com,2013-03-05 12:47:00,
2013-03-05 07:02:00,47.7,26.9,29.49,SE,135,0.0,-999.0,44,-99.99,,,0.31,Acu-Link.com,2013-03-05 13:02:00,
2013-03-05 07:17:00,48.2,26.8,29.48,SE,135,0.0,-999.0,43,-99.99,,,0.32,Acu-Link.com,2013-03-05 13:17:00,
2013-03-05 07:33:00,48.4,26.4,29.49,SE,135,0.0,-999.0,42,-99.99,,,0.32,Acu-Link.com,2013-03-05 13:33:00,
2013-03-05 07:48:00,48.9,26.8,29.49,SE,135,0.0,-999.0,42,-99.99,,,0.32,Acu-Link.com,2013-03-05 13:48:00,
2013-03-05 08:03:00,49.3,26.0,29.51,SE,135,0.0,-999.0,40,-99.99,,,0.32,Acu-Link.com,2013-03-05 14:03:00,
2013-03-05 08:18:00,49.3,26.0,29.48,SE,135,0.0,-999.0,40,-99.99,,,0.35,Acu-Link.com,2013-03-05 14:18:00,
2013-03-05 08:33:00,49.8,25.9,29.47,SE,135,0.0,-999.0,39,-99.99,,,0.36,Acu-Link.com,2013-03-05 14:33:00,
2013-03-05 08:48:00,50.0,26.0,29.47,SE,135,0.0,-999.0,39,-99.99,,,0.37,Acu-Link.com,2013-03-05 14:48:00,
2013-03-05 09:03:00,50.5,25.9,29.49,SE,135,0.0,-999.0,38,-99.99,,,0.39,Acu-Link.com,2013-03-05 15:03:00,
2013-03-05 09:18:00,50.9,26.2,29.48,South,180,0.0,-999.0,38,-99.99,,,0.41,Acu-Link.com,2013-03-05 15:18:00,
2013-03-05 09:33:00,51.1,25.7,29.47,South,180,0.0,-999.0,37,-99.99,,,0.42,Acu-Link.com,2013-03-05 15:33:00,
2013-03-05 09:49:00,52.5,27.0,29.45,West,270,0.0,-999.0,37,-99.99,,,0.43,Acu-Link.com,2013-03-05 15:49:00,
2013-03-05 10:04:00,52.9,27.3,29.43,West,270,4.7,-999.0,37,-99.99,,,0.43,Acu-Link.com,2013-03-05 16:04:00,
2013-03-05 10:19:00,52.2,2.9,29.45,WNW,292,4.2,-999.0,13,-99.99,,,0.43,Acu-Link.com,2013-03-05 16:19:00,
2013-03-05 10:34:00,51.6,16.9,29.46,West,270,5.3,-999.0,25,-99.99,,,0.43,Acu-Link.com,2013-03-05 16:34:00,
2013-03-05 10:49:00,50.7,11.1,29.46,NW,315,7.3,-999.0,20,-99.99,,,0.43,Acu-Link.com,2013-03-05 16:49:00,
2013-03-05 11:04:00,50.2,9.6,29.44,WNW,292,8.9,-999.0,19,-99.99,,,0.43,Acu-Link.com,2013-03-05 17:04:00,
2013-03-05 11:19:00,48.9,1.8,29.46,West,270,10.4,-999.0,14,-99.99,,,0.45,Acu-Link.com,2013-03-05 17:19:00,
2013-03-05 11:34:00,48.0,44.3,29.47,West,270,10.9,-999.0,87,-99.99,,,0.45,Acu-Link.com,2013-03-05 17:34:00,
2013-03-05 11:49:00,46.0,45.5,29.48,NNW,337,16.1,-999.0,98,-99.99,,,0.45,Acu-Link.com,2013-03-05 17:49:00,
2013-03-05 12:05:00,44.2,26.8,29.48,West,270,10.4,-999.0,50,-99.99,,,0.45,Acu-Link.com,2013-03-05 18:05:00,
2013-03-05 12:20:00,43.0,-14.2,29.49,West,270,8.9,-999.0,8,-99.99,,,0.45,Acu-Link.com,2013-03-05 18:20:00,
2013-03-05 12:35:00,41.9,-8.7,29.49,WNW,292,10.9,-999.0,11,-99.99,,,0.46,Acu-Link.com,2013-03-05 18:35:00,
2013-03-05 12:50:00,41.4,-4.2,29.51,West,270,11.9,-999.0,14,-99.99,,,0.46,Acu-Link.com,2013-03-05 18:50:00,
2013-03-05 13:05:00,40.1,21.5,29.51,West,270,8.9,-999.0,47,-99.99,,,0.47,Acu-Link.com,2013-03-05 19:05:00,
2013-03-05 13:20:00,38.8,38.3,29.53,West,270,20.2,-999.0,98,-99.99,,,0.48,Acu-Link.com,2013-03-05 19:20:00,
2013-03-05 13:35:00,37.6,37.1,29.55,West,270,10.9,-999.0,98,-99.99,,,0.49,Acu-Link.com,2013-03-05 19:35:00,
2013-03-05 13:50:00,37.6,37.1,29.54,West,270,13.0,-999.0,98,-99.99,,,0.49,Acu-Link.com,2013-03-05 19:50:00,
2013-03-05 14:05:00,36.7,36.2,29.56,West,270,10.4,-999.0,98,-99.99,,,0.49,Acu-Link.com,2013-03-05 20:05:00,
2013-03-05 14:21:00,36.7,36.2,29.56,WNW,292,10.4,-999.0,98,-99.99,,,0.49,Acu-Link.com,2013-03-05 20:21:00,
2013-03-05 14:36:00,36.5,36.0,29.58,West,270,9.4,-999.0,98,-99.99,,,0.49,Acu-Link.com,2013-03-05 20:36:00,
2013-03-05 14:51:00,36.3,35.8,29.59,West,270,8.3,-999.0,98,-99.99,,,0.49,Acu-Link.com,2013-03-05 20:51:00,
2013-03-05 15:06:00,36.3,35.8,29.60,West,270,14.5,-999.0,98,-99.99,,,0.49,Acu-Link.com,2013-03-05 21:06:00,
2013-03-05 15:21:00,36.3,35.8,29.62,WNW,292,12.5,-999.0,98,-99.99,,,0.49,Acu-Link.com,2013-03-05 21:21:00,
2013-03-05 15:36:00,36.7,36.2,29.63,West,270,10.9,-999.0,98,-99.99,,,0.50,Acu-Link.com,2013-03-05 21:36:00,
2013-03-05 15:51:00,36.9,36.4,29.62,West,270,17.1,-999.0,98,-99.99,,,0.50,Acu-Link.com,2013-03-05 21:51:00,
2013-03-05 16:06:00,36.9,36.4,29.63,West,270,5.8,-999.0,98,-99.99,,,0.50,Acu-Link.com,2013-03-05 22:06:00,
2013-03-05 16:21:00,37.0,36.5,29.64,West,270,11.9,-999.0,98,-99.99,,,0.50,Acu-Link.com,2013-03-05 22:21:00,
2013-03-05 16:37:00,37.0,36.5,29.66,West,270,11.9,-999.0,98,-99.99,,,0.50,Acu-Link.com,2013-03-05 22:37:00,
2013-03-05 16:52:00,37.0,36.7,29.66,West,270,14.5,-999.0,99,-99.99,,,0.50,Acu-Link.com,2013-03-05 22:52:00,
2013-03-05 17:07:00,37.0,36.7,29.68,West,270,13.0,-999.0,99,-99.99,,,0.50,Acu-Link.com,2013-03-05 23:07:00,
2013-03-05 17:22:00,37.4,37.1,29.69,West,270,14.0,-999.0,99,-99.99,,,0.50,Acu-Link.com,2013-03-05 23:22:00,
2013-03-05 17:37:00,37.0,36.7,29.69,West,270,10.9,-999.0,99,-99.99,,,0.50,Acu-Link.com,2013-03-05 23:37:00,
2013-03-05 17:52:00,36.7,36.4,29.70,West,270,9.4,-999.0,99,-99.99,,,0.50,Acu-Link.com,2013-03-05 23:52:00,
2013-03-05 18:07:00,36.7,36.4,29.69,West,270,10.9,-999.0,99,-99.99,,,0.50,Acu-Link.com,2013-03-06 00:07:00,
2013-03-05 18:22:00,36.7,36.4,29.68,West,270,8.9,-999.0,99,-99.99,,,0.50,Acu-Link.com,2013-03-06 00:22:00,
2013-03-05 18:38:00,36.7,36.4,29.69,West,270,6.8,-999.0,99,-99.99,,,0.50,Acu-Link.com,2013-03-06 00:38:00,
2013-03-05 18:53:00,37.0,36.7,29.69,West,270,8.3,-999.0,99,-99.99,,,0.50,Acu-Link.com,2013-03-06 00:53:00,
2013-03-05 19:08:00,37.0,36.7,29.69,West,270,6.8,-999.0,99,-99.99,,,0.50,Acu-Link.com,2013-03-06 01:08:00,
2013-03-05 19:23:00,36.7,36.4,29.71,West,270,17.1,-999.0,99,-99.99,,,0.50,Acu-Link.com,2013-03-06 01:23:00,
2013-03-05 19:38:00,35.2,34.4,29.72,WNW,292,18.1,-999.0,97,-99.99,,,0.50,Acu-Link.com,2013-03-06 01:38:00,
2013-03-05 19:53:00,35.1,33.3,29.72,NW,315,12.5,-999.0,93,-99.99,,,0.50,Acu-Link.com,2013-03-06 01:53:00,
2013-03-05 20:08:00,34.7,32.3,29.73,West,270,10.4,-999.0,91,-99.99,,,0.50,Acu-Link.com,2013-03-06 02:08:00,
2013-03-05 20:24:00,34.3,30.8,29.72,West,270,15.0,-999.0,87,-99.99,,,0.50,Acu-Link.com,2013-03-06 02:24:00,
2013-03-05 20:39:00,34.3,30.8,29.72,West,270,11.9,-999.0,87,-99.99,,,0.50,Acu-Link.com,2013-03-06 02:39:00,
2013-03-05 20:54:00,34.2,31.0,29.73,West,270,7.3,-999.0,88,-99.99,,,0.50,Acu-Link.com,2013-03-06 02:54:00,
2013-03-05 21:09:00,34.0,31.1,29.74,West,270,14.0,-999.0,89,-99.99,,,0.50,Acu-Link.com,2013-03-06 03:09:00,
2013-03-05 21:24:00,34.0,31.4,29.74,West,270,10.9,-999.0,90,-99.99,,,0.50,Acu-Link.com,2013-03-06 03:24:00,
2013-03-05 21:39:00,33.6,32.1,29.73,West,270,12.5,-999.0,94,-99.99,,,0.50,Acu-Link.com,2013-03-06 03:39:00,
2013-03-05 21:54:00,33.3,32.3,29.73,West,270,8.9,-999.0,96,-99.99,,,0.50,Acu-Link.com,2013-03-06 03:54:00,
2013-03-05 22:09:00,33.4,32.1,29.73,WNW,292,7.3,-999.0,95,-99.99,,,0.50,Acu-Link.com,2013-03-06 04:09:00,
2013-03-05 22:25:00,33.4,32.6,29.73,West,270,8.3,-999.0,97,-99.99,,,0.50,Acu-Link.com,2013-03-06 04:25:00,
2013-03-05 22:40:00,33.4,32.6,29.74,WNW,292,13.0,-999.0,97,-99.99,,,0.50,Acu-Link.com,2013-03-06 04:40:00,
2013-03-05 22:55:00,33.3,33.0,29.74,West,270,8.3,-999.0,99,-99.99,,,0.50,Acu-Link.com,2013-03-06 04:55:00,
2013-03-05 23:10:00,33.4,33.1,29.73,West,270,6.3,-999.0,99,-99.99,,,0.50,Acu-Link.com,2013-03-06 05:10:00,
2013-03-05 23:25:00,33.4,33.1,29.73,West,270,8.9,-999.0,99,-99.99,,,0.50,Acu-Link.com,2013-03-06 05:25:00,
2013-03-05 23:40:00,33.4,33.1,29.74,NW,315,10.4,-999.0,99,-99.99,,,0.50,Acu-Link.com,2013-03-06 05:40:00,
2013-03-05 23:55:00,33.4,33.1,29.73,West,270,16.1,-999.0,99,-99.99,,,0.50,Acu-Link.com,2013-03-06 05:55:00,